Groningen, Netherlands

6:55 PM CET on February 24, 2017 (GMT +0100)
Eelde

Weather History for EHGG - December, 2013

Change the Weather History Date:

Monday, December 23, 2013

  Actual Average Record
Temperature  
Mean Temperature 44 °F -  
Max Temperature 50 °F 39 °F 52 °F (2012)
Min Temperature 37 °F 30 °F 15 °F (2000)
Degree Days  
Heating Degree Days 22    
Moisture  
Dew Point 39 °F    
Average Humidity 84    
Maximum Humidity 94    
Minimum Humidity 67    
Precipitation  
Precipitation 0.00 in 0.09 in - ()
Sea Level Pressure  
Sea Level Pressure 29.72 in    
Wind  
Wind Speed 14 mph ()    
Max Wind Speed 29 mph    
Max Gust Speed 44 mph    
Visibility 8.1 miles    
Events Rain    
Averages and records for this station are not official NWS values.
T = Trace of Precipitation, MM = Missing Value Source: Averaged Metar Reports

Daily Weather History Graph

Daily Weather History Graph

Search for Another Location

Airport or City:

Trip Planner

Search our weather history database for the weather conditions in past years. The results will help you decide how hot, cold, wet, or windy it might be!

Date:

Astronomy

Dec. 23, 2013 Rise Set
Actual Time 8:46 AM CET 4:19 PM CET
Civil Twilight 8:04 AM CET 5:01 PM CET
Nautical Twilight 7:18 AM CET 5:46 PM CET
Astronomical Twilight 6:36 AM CET 6:29 PM CET
Moon 11:01 PM CET (12/23) 11:20 AM CET (12/23)
Length of Visible Light 8h 57m
Length of Day
7h 32m
Waning Gibbous, 70% of the Moon is Illuminated
Dec 23
Waning Gibbous
Dec 25
Last Quarter
Jan 1
New
Jan 8
First Quarter
Jan 16
Full

Hourly Weather History & Observations

Time (CET) Temp. Windchill Dew Point Humidity Pressure Visibility Wind Dir Wind Speed Gust Speed Precip Events Conditions
12:00 AM 42 °F - 37 °F 77% 29.82 in 25 mi SW 15.7 mph - - Rain Drizzle
12:25 AM 41.0 °F 33.5 °F 37.4 °F 87% 29.80 in 6.2 mi SW 13.8 mph - N/A   Unknown
12:55 AM 41.0 °F 33.9 °F 37.4 °F 87% 29.83 in 6.2 mi SW 12.7 mph - N/A   Partly Cloudy
1:00 AM 42 °F - 37 °F 76% 29.84 in 16 mi WSW 13.4 mph - -   Partly Cloudy
1:25 AM 41.0 °F 33.1 °F 37.4 °F 87% 29.83 in 6.2 mi SW 15.0 mph - N/A   Partly Cloudy
1:55 AM 42.8 °F 35.1 °F 35.6 °F 76% 29.83 in 6.2 mi WSW 16.1 mph - N/A   Unknown
2:00 AM 42 °F - 36 °F 73% 29.86 in 15 mi WSW 13.4 mph - -   Scattered Clouds
2:25 AM 41.0 °F 33.5 °F 35.6 °F 81% 29.86 in 6.2 mi WSW 13.8 mph - N/A   Scattered Clouds
2:55 AM 41.0 °F 33.9 °F 35.6 °F 81% 29.86 in 6.2 mi WSW 12.7 mph - N/A   Unknown
3:00 AM 41 °F - 36 °F 74% 29.88 in 13 mi WSW 13.4 mph - -  
3:25 AM 41.0 °F 34.3 °F 35.6 °F 81% 29.86 in 6.2 mi SW 11.5 mph - N/A   Unknown
3:55 AM 39.2 °F 32.5 °F 35.6 °F 87% 29.89 in 6.2 mi SW 10.4 mph - N/A   Partly Cloudy
4:00 AM 38 °F - 35 °F 84% 29.89 in 12 mi SW 11.2 mph - -   Scattered Clouds
4:25 AM 37.4 °F 30.3 °F 33.8 °F 87% 29.89 in 6.2 mi SW 10.4 mph - N/A   Unknown
4:55 AM 37.4 °F 30.8 °F 35.6 °F 93% 29.89 in 6.2 mi SSW 9.2 mph - N/A   Partly Cloudy
5:00 AM 37 °F - 35 °F 88% 29.90 in 12 mi SSW 8.9 mph - -  
5:25 AM 37.4 °F 30.3 °F 35.6 °F 93% 29.89 in 6.2 mi SSW 10.4 mph - N/A   Scattered Clouds
5:55 AM 37.4 °F 30.3 °F 35.6 °F 93% 29.89 in 6.2 mi SSW 10.4 mph - N/A   Scattered Clouds
6:00 AM 38 °F - 35 °F 85% 29.90 in 13 mi SSW 11.2 mph - -   Scattered Clouds
6:25 AM 37.4 °F 30.3 °F 35.6 °F 93% 29.89 in 6.2 mi SSW 10.4 mph - N/A   Unknown
6:55 AM 37.4 °F 29.8 °F 35.6 °F 93% 29.89 in 6.2 mi SSW 11.5 mph - N/A   Unknown
7:00 AM 38 °F - 36 °F 88% 29.91 in 11 mi SSW 11.2 mph - -   Partly Cloudy
7:25 AM 37.4 °F 30.3 °F 35.6 °F 93% 29.89 in 6.2 mi SSW 10.4 mph - N/A   Unknown
7:55 AM 39.2 °F 32.0 °F 37.4 °F 93% 29.89 in 6.2 mi SSW 11.5 mph - N/A   Unknown
8:00 AM 38 °F - 36 °F 92% 29.90 in 9 mi SSW 11.2 mph - -  
8:25 AM 39.2 °F 31.6 °F 37.4 °F 93% 29.89 in 6.2 mi SSW 12.7 mph - N/A   Unknown
8:55 AM 39.2 °F 31.6 °F 37.4 °F 93% 29.89 in 6.2 mi SSW 12.7 mph - N/A   Unknown
9:00 AM 38 °F - 37 °F 94% 29.90 in 7 mi SSW 11.2 mph - -  
9:25 AM 39.2 °F 31.6 °F 37.4 °F 93% 29.89 in 6.2 mi SSW 12.7 mph - N/A   Unknown
9:55 AM 39.2 °F 31.6 °F 37.4 °F 93% 29.89 in 6.2 mi South 12.7 mph - N/A   Unknown
10:00 AM 40 °F - 37 °F 86% 29.89 in 9 mi South 13.4 mph - -   Scattered Clouds
10:25 AM 41.0 °F 33.9 °F 37.4 °F 87% 29.89 in 6.2 mi South 12.7 mph - N/A   Unknown
10:55 AM 41.0 °F 33.1 °F 39.2 °F 93% 29.86 in 6.2 mi South 15.0 mph - N/A   Scattered Clouds
11:00 AM 42 °F - 39 °F 83% 29.88 in 12 mi South 15.7 mph - -   Scattered Clouds
11:25 AM 42.8 °F 35.4 °F 39.2 °F 87% 29.86 in 6.2 mi SSW 15.0 mph - N/A   Overcast
11:55 AM 42.8 °F 35.8 °F 39.2 °F 87% 29.86 in 6.2 mi SSW 13.8 mph - N/A   Mostly Cloudy
12:00 PM 43 °F - 40 °F 83% 29.85 in 13 mi South 15.7 mph - -   Mostly Cloudy
12:25 PM 42.8 °F 35.8 °F 39.2 °F 87% 29.83 in 6.2 mi South 13.8 mph - N/A   Partly Cloudy
12:55 PM 44.6 °F 37.4 °F 41.0 °F 87% 29.80 in 6.2 mi South 16.1 mph - N/A   Partly Cloudy
1:00 PM 45 °F - 40 °F 76% 29.80 in 14 mi South 15.7 mph - -   Partly Cloudy
1:25 PM 44.6 °F 37.2 °F 39.2 °F 81% 29.77 in 6.2 mi South 17.3 mph 28.8 mph N/A   Partly Cloudy
1:55 PM 44.6 °F 38.1 °F 39.2 °F 81% 29.74 in 6.2 mi South 13.8 mph - N/A   Scattered Clouds
2:00 PM 45 °F - 40 °F 75% 29.75 in 16 mi South 15.7 mph - -   Scattered Clouds
2:25 PM 44.6 °F 37.8 °F 39.2 °F 81% 29.71 in 6.2 mi South 15.0 mph - N/A   Unknown
2:55 PM 44.6 °F 37.4 °F 39.2 °F 81% 29.71 in 6.2 mi South 16.1 mph - N/A   Mostly Cloudy
3:00 PM 45 °F - 40 °F 76% 29.72 in 16 mi South 17.9 mph - -   Overcast
3:25 PM 44.6 °F 37.2 °F 41.0 °F 87% 29.68 in 6.2 mi South 17.3 mph 29.9 mph N/A   Mostly Cloudy
3:55 PM 46.4 °F 39.2 °F 41.0 °F 81% 29.65 in 6.2 mi South 18.4 mph - N/A   Overcast
4:00 PM 46 °F - 41 °F 75% 29.66 in 17 mi South 17.9 mph - -   Overcast
4:25 PM 46.4 °F 39.8 °F 41.0 °F 81% 29.62 in 6.2 mi South 16.1 mph - N/A   Overcast
4:55 PM 46.4 °F 39.0 °F 41.0 °F 81% 29.62 in 6.2 mi South 19.6 mph - N/A   Mostly Cloudy
5:00 PM 47 °F - 41 °F 73% 29.61 in 17 mi South 20.1 mph - -   Overcast
5:25 PM 48.2 °F - 41.0 °F 76% 29.56 in 6.2 mi South 18.4 mph - N/A   Mostly Cloudy
5:55 PM 48.2 °F - 41.0 °F 76% 29.56 in 6.2 mi South 19.6 mph - N/A   Overcast
6:00 PM 49 °F - 42 °F 67% 29.55 in 19 mi South 22.4 mph - -   Overcast
6:25 PM 48.2 °F - 42.8 °F 82% 29.50 in 6.2 mi South 20.7 mph 32.2 mph N/A   Partly Cloudy
6:55 PM 48.2 °F - 42.8 °F 82% 29.50 in 6.2 mi South 24.2 mph - N/A   Drizzle
7:00 PM 48 °F - 43 °F 77% 29.50 in 8 mi South 22.4 mph - - Rain Heavy Drizzle
7:25 PM 48.2 °F - 44.6 °F 87% 29.47 in 6.2 mi South 21.9 mph 35.7 mph N/A Rain Light Rain
7:55 PM 48.2 °F - 44.6 °F 87% 29.44 in 6.2 mi South 24.2 mph 38.0 mph N/A Rain Light Rain
8:00 PM 48 °F - 44 °F 83% 29.46 in 7 mi South 24.6 mph - - Rain Light Rain
8:25 PM 48.2 °F - 44.6 °F 87% 29.42 in 6.2 mi South 24.2 mph 36.8 mph N/A   Drizzle
8:55 PM 50.0 °F - 44.6 °F 82% 29.42 in 6.2 mi South 26.5 mph 39.1 mph N/A   Drizzle
9:00 PM 49 °F - 45 °F 79% 29.41 in 9 mi South 26.8 mph - - Rain Drizzle
9:25 PM 50.0 °F - 44.6 °F 82% 29.39 in 6.2 mi South 26.5 mph - N/A   Drizzle
9:55 PM 50.0 °F - 44.6 °F 82% 29.36 in 6.2 mi South 25.3 mph 38.0 mph N/A Rain Light Rain
10:00 PM 50 °F - 45 °F 76% 29.37 in 7 mi South 29.1 mph - - Rain Light Rain
10:25 PM 50.0 °F - 44.6 °F 82% 29.33 in 6.2 mi South 28.8 mph 43.7 mph N/A   Drizzle
10:55 PM 50.0 °F - 44.6 °F 82% 29.33 in 6.2 mi South 28.8 mph 41.4 mph N/A   Drizzle
11:00 PM 50 °F - 45 °F 76% 29.34 in 7 mi South 29.1 mph - - Rain Drizzle
11:25 PM 50.0 °F - 44.6 °F 82% 29.33 in 6.2 mi South 25.3 mph 36.8 mph N/A   Drizzle
11:55 PM 50.0 °F - 44.6 °F 82% 29.30 in 6.2 mi South 25.3 mph 36.8 mph N/A Rain Light Rain